Location: Les Jeannots
(43.2262°N, 5.5774°E)
Time: 19:18:41
(UTC+00:00)

Cosmos 2278 Rocket - Pass Details

Date: 05 July 2020
Orbit: 841 x 845 km, 71.0° (Epoch: 11 August)

Event Time Altitude Azimuth Distance (km) Brightness Sun altitude
Rises 22:45:34 0° 329° (NNW) 3,413 6.6 -22.8°
Reaches altitude 10° 22:48:07 10° 323° (NW) 2,473 5.5 -22.9°
Maximum altitude 22:53:28 44° 253° (WSW) 1,156 2.8 -23.2°
Enters shadow 22:54:40 38° 221° (SW) 1,256 2.8 -23.2°
